Location: Boulin
(43.2500°N, 0.1333°E)
Time: 10:32:02
(UTC+00:00)

Aureole 1 Rocket - Pass Details

Date: 11 December 2025
Orbit: 372 x 1167 km, 73.9° (Epoch: 20 January)

Event Time Altitude Azimuth Distance (km) Brightness Sun altitude
Rises 17:05:01 0° 157° (SSE) 2,697 6.4 -7.4°
Reaches altitude 10° 17:07:29 10° 139° (SE) 1,937 5.4 -7.8°
Maximum altitude 17:10:37 20° 93° (E) 1,563 4.6 -8.4°
Drops below altitude 10° 17:14:17 10° 48° (NE) 2,314 5.4 -9.0°
Enters shadow 17:14:28 - 47° (NE) 2,376 5.5 -9.0°
